FW2602 Weather Reports


Display with metric or nautical units.
time (UTC)temp
F
wind
direction
speed
MPH
gust
MPH
rain 1hr
in
rain 24hr
in
rain mn
in
humidity
%
barometer
mb
20260507103520 36 295 8.0 13.0 0.00 0.46 0.00 80 1010.1
20260507103019 37 295 7.0 13.0 0.00 0.46 0.00 80 1010.1
20260507102518 37 283 7.0 13.0 0.00 0.46 0.00 80 1009.9
20260507102017 36 308 7.0 12.0 0.00 0.46 0.00 81 1009.9
20260507101517 37 297 4.0 12.0 0.00 0.46 0.00 81 1009.9
20260507101016 37 300 6.0 11.0 0.00 0.46 0.00 81 1009.9
20260507100515 37 279 5.0 11.0 0.00 0.46 0.00 81 1009.9
20260507100023 37 282 6.0 11.0 0.00 0.46 0.00 83 1009.9
20260507095513 37 299 7.0 11.0 0.00 0.46 0.00 83 1009.9
20260507095013 37 297 7.0 11.0 0.00 0.46 0.00 84 1009.9
20260507094512 37 291 6.0 11.0 0.00 0.46 0.00 84 1009.9
20260507094011 37 281 5.0 10.0 0.00 0.46 0.00 84 1009.9
20260507093509 38 295 7.0 11.0 0.00 0.46 0.00 84 1009.9
20260507093010 38 300 6.0 11.0 0.00 0.46 0.00 84 1009.9
20260507092508 38 302 6.0 11.0 0.00 0.46 0.00 84 1009.7
20260507092006 38 276 4.0 10.0 0.00 0.46 0.00 85 1009.8
20260507091505 38 295 5.0 11.0 0.00 0.46 0.00 85 1009.7
20260507091005 38 300 5.0 11.0 0.00 0.46 0.00 85 1009.8
20260507090505 39 287 7.0 11.0 0.00 0.46 0.00 85 1009.9
20260507090004 39 315 6.0 13.0 0.00 0.46 0.00 85 1009.7
20260507085503 39 297 7.0 13.0 0.00 0.46 0.00 86 1009.8
20260507085003 39 302 4.0 11.0 0.00 0.46 0.00 86 1009.8
20260507084502 39 295 6.0 11.0 0.00 0.46 0.00 86 1009.8
20260507084002 39 307 5.0 9.0 0.00 0.46 0.00 86 1009.7
20260507083501 39 312 5.0 11.0 0.00 0.46 0.00 86 1009.6
20260507083101 39 304 6.0 11.0 0.00 0.46 0.00 86 1009.6
20260507082603 39 277 7.0 11.0 0.00 0.46 0.00 86 1009.7
20260507082059 39 300 7.0 12.0 0.00 0.46 0.00 86 1009.7
20260507081602 39 297 8.0 12.0 0.00 0.46 0.00 86 1009.7
20260507081058 39 298 7.0 11.0 0.00 0.46 0.00 86 1009.7
20260507080558 40 283 6.0 11.0 0.00 0.46 0.00 86 1009.7
20260507080056 40 301 5.0 9.0 0.00 0.46 0.00 87 1009.8
20260507075556 40 278 6.0 9.0 0.00 0.46 0.00 87 1009.8
20260507075055 40 273 4.0 7.0 0.00 0.46 0.00 87 1009.8
20260507074554 40 253 3.0 12.0 0.00 0.46 0.00 88 1009.9
20260507074053 40 281 7.0 13.0 0.00 0.46 0.00 89 1010.1
20260507073555 41 290 5.0 13.0 0.00 0.46 0.00 91 1010.0
20260507073118 41 311 7.0 13.0 0.00 0.46 0.00 92 1010.0
20260507072549 41 300 8.0 13.0 0.00 0.46 0.00 93 1009.8
20260507072047 41 283 5.0 12.0 0.00 0.46 0.00 93 1009.9
20260507071546 41 264 3.0 12.0 0.00 0.46 0.00 93 1009.8
20260507071045 41 290 5.0 10.0 0.00 0.46 0.00 93 1009.8
20260507070544 42 287 4.0 9.0 0.00 0.46 0.00 93 1009.7
20260507070044 42 283 3.0 8.0 0.00 0.46 0.00 93 1009.5
20260507065543 42 294 1.0 10.0 0.00 0.46 0.00 92 1009.5
20260507065042 42 293 4.0 10.0 0.00 0.46 0.00 92 1009.5
20260507064555 42 297 5.0 8.0 0.00 0.46 0.00 92 1009.4
20260507064041 42 300 5.0 10.0 0.00 0.46 0.00 92 1009.3
20260507063543 42 288 5.0 10.0 0.00 0.46 0.00 92 1009.2
20260507063047 42 294 6.0 12.0 0.00 0.46 0.00 92 1009.1
20260507062539 42 290 7.0 11.0 0.00 0.46 0.00 93 1009.0
20260507062039 42 283 5.0 9.0 0.00 0.46 0.00 93 1008.7
20260507061540 42 267 4.0 7.0 0.00 0.46 0.00 93 1008.6
20260507061036 42 297 3.0 6.0 0.00 0.46 0.00 94 1008.6
20260507060535 42 297 1.0 5.0 0.00 0.46 0.00 94 1008.9
20260507060035 42 278 1.0 4.0 0.00 0.46 0.00 94 1009.0
20260507055535 42 287 1.0 4.0 0.00 0.46 0.00 94 1009.2
20260507055034 42 281 0.0 5.0 0.00 0.46 0.00 94 1009.2
20260507054535 42 295 2.0 5.0 0.00 0.46 0.00 93 1009.1
20260507054035 42 290 0.0 5.0 0.00 0.46 0.00 93 1009.1
20260507053531 42 301 2.0 6.0 0.00 0.46 0.00 93 1009.2
20260507053035 42 306 2.0 6.0 0.00 0.46 0.00 93 1009.2
20260507052530 42 297 2.0 7.0 0.00 0.46 0.00 93 1009.0
20260507052031 42 285 4.0 7.0 0.00 0.46 0.00 93 1009.0
20260507051529 42 299 3.0 6.0 0.00 0.46 0.00 93 1009.0
20260507051030 42 295 1.0 4.0 0.00 0.46 0.00 93 1009.0
20260507050527 42 297 2.0 4.0 0.00 0.46 0.00 93 1009.1
20260507050027 42 287 2.0 4.0 0.00 0.46 0.00 93 1009.2
20260507045526 42 293 2.0 4.0 0.00 0.46 0.00 93 1009.1
20260507045026 42 297 1.0 2.0 0.00 0.46 0.00 93 1009.1
20260507044524 42 297 0.0 2.0 0.00 0.46 0.00 92 1008.8
20260507044023 42 297 0.0 3.0 0.00 0.46 0.00 93 1008.9
20260507043522 42 293 1.0 4.0 0.00 0.46 0.00 93 1009.2
20260507043023 42 300 1.0 4.0 0.00 0.46 0.00 93 1009.2
20260507042521 42 297 1.0 6.0 0.00 0.46 0.00 93 1009.3
20260507042020 42 288 2.0 6.0 0.00 0.46 0.00 93 1009.4
20260507041520 43 300 3.0 5.0 0.00 0.46 0.00 93 1009.2
20260507041019 43 293 1.0 6.0 0.00 0.46 0.00 93 1009.1
20260507040518 43 295 2.0 5.0 0.00 0.46 0.00 93 1009.3
20260507040017 43 290 0.0 5.0 0.00 0.46 0.00 93 1009.3
20260507035517 43 263 2.0 6.0 0.00 0.46 0.46 93 1009.6
20260507035017 43 286 3.0 5.0 0.00 0.46 0.46 93 1009.5
20260507034516 43 295 2.0 4.0 0.00 0.46 0.46 93 1009.4
20260507034016 43 294 2.0 6.0 0.00 0.46 0.46 93 1009.4
20260507033518 43 302 3.0 8.0 0.00 0.46 0.46 93 1009.1
20260507033015 43 290 4.0 8.0 0.00 0.46 0.46 93 1009.4
20260507032514 43 309 3.0 7.0 0.00 0.46 0.46 93 1009.4
20260507032015 43 294 3.0 7.0 0.00 0.46 0.46 93 1009.3
20260507031514 43 300 3.0 7.0 0.00 0.46 0.46 93 1009.4
20260507031014 43 295 2.0 7.0 0.00 0.46 0.46 94 1009.5
20260507030515 43 278 1.0 5.0 0.00 0.46 0.46 94 1009.3
20260507030014 43 293 2.0 5.0 0.00 0.46 0.46 94 1009.2
20260507025513 43 299 3.0 5.0 0.00 0.46 0.46 94 1009.3
20260507025013 43 288 3.0 5.0 0.00 0.46 0.46 94 1009.2
20260507024514 43 276 2.0 6.0 0.00 0.46 0.46 94 1009.2
20260507024012 43 298 2.0 6.0 0.00 0.46 0.46 94 1009.4
20260507023513 43 310 2.0 7.0 0.00 0.46 0.46 94 1009.4
20260507023010 43 295 2.0 7.0 0.00 0.46 0.46 94 1009.2
20260507022512 43 297 3.0 8.0 0.00 0.46 0.46 94 1009.6
20260507022011 43 318 3.0 10.0 0.00 0.46 0.46 94 1009.4
20260507021509 43 288 5.0 10.0 0.00 0.46 0.46 94 1009.8
20260507021012 43 298 4.0 11.0 0.00 0.46 0.46 94 1009.6
20260507020508 43 276 5.0 11.0 0.00 0.46 0.46 95 1009.6
20260507020009 43 309 5.0 11.0 0.00 0.46 0.46 95 1009.6
20260507015506 43 295 7.0 10.0 0.00 0.46 0.46 95 1009.6
20260507015005 44 287 5.0 8.0 0.00 0.46 0.46 95 1009.6
20260507014504 44 286 3.0 8.0 0.00 0.46 0.46 95 1009.3
20260507014005 44 273 3.0 8.0 0.00 0.46 0.46 95 1009.4
20260507013502 44 301 2.0 6.0 0.00 0.46 0.46 95 1009.3
20260507013003 44 295 2.0 9.0 0.00 0.46 0.46 95 1009.3
20260507012502 44 304 2.0 9.0 0.01 0.46 0.46 95 1009.2
20260507012001 44 295 4.0 8.0 0.01 0.46 0.46 95 1009.2
20260507011601 44 292 4.0 9.0 0.01 0.46 0.46 95 1009.2
20260507011101 44 301 3.0 9.0 0.01 0.46 0.46 95 1009.0
20260507010600 44 290 4.0 8.0 0.01 0.46 0.46 95 1009.1
20260507010059 44 300 3.0 6.0 0.01 0.46 0.46 95 1009.0
20260507005603 44 290 2.0 6.0 0.01 0.46 0.46 95 1009.0
20260507005057 44 292 2.0 9.0 0.01 0.46 0.46 95 1008.8
20260507004557 44 314 7.0 10.0 0.01 0.46 0.46 95 1008.8
20260507004056 44 304 5.0 10.0 0.01 0.46 0.46 95 1008.6
20260507003524 44 294 5.0 13.0 0.01 0.46 0.46 95 1008.6
20260507003009 44 304 6.0 13.0 0.01 0.46 0.46 95 1008.6
20260507002519 45 305 5.0 10.0 0.00 0.45 0.45 95 1008.4
20260507002007 45 280 5.0 10.0 0.00 0.45 0.45 95 1008.4
20260507001517 45 311 4.0 9.0 0.00 0.45 0.45 95 1008.4
20260507001017 45 274 4.0 9.0 0.00 0.45 0.45 95 1008.4
20260507000509 45 288 2.0 8.0 0.00 0.45 0.45 94 1008.4
20260507000018 45 297 2.0 12.0 0.00 0.45 0.45 94 1008.4
20260506235510 45 290 3.0 12.0 0.00 0.45 0.45 94 1008.3
20260506235019 45 290 3.0 15.0 0.00 0.45 0.45 94 1008.0
20260506234543 45 299 4.0 15.0 0.00 0.45 0.45 94 1007.8
20260506234017 45 297 9.0 14.0 0.00 0.45 0.45 94 1007.7
20260506233524 45 267 6.0 12.0 0.00 0.45 0.45 95 1007.7
20260506233011 45 262 8.0 12.0 0.00 0.45 0.45 95 1007.6
20260506232521 45 290 5.0 10.0 0.00 0.45 0.45 95 1007.6
20260506232005 45 298 7.0 10.0 0.00 0.45 0.45 95 1007.6
20260506231517 45 311 5.0 11.0 0.00 0.45 0.45 95 1007.3
20260506231020 45 263 5.0 11.0 0.00 0.45 0.45 95 1007.2
20260506230510 45 291 4.0 8.0 0.00 0.45 0.45 95 1007.0
20260506230017 45 297 6.0 0.0 0.00 0.00 0.45 95 1007.0
20260506225531 45 286 5.0 11.0 0.00 0.45 0.45 95 1007.1
20260506225014 45 270 5.0 12.0 0.00 0.45 0.45 95 1007.1
20260506224528 45 311 7.0 12.0 0.00 0.45 0.45 95 1007.2
20260506224008 45 301 6.0 12.0 0.00 0.45 0.45 95 1007.1
20260506223518 45 287 7.0 16.0 0.00 0.45 0.45 95 1007.0
20260506223008 45 288 7.0 16.0 0.00 0.45 0.45 95 1006.9
20260506222522 45 290 8.0 15.0 0.00 0.45 0.45 95 1006.8
20260506222008 45 300 7.0 14.0 0.00 0.45 0.45 95 1006.6
20260506221520 46 280 7.0 13.0 0.00 0.45 0.45 95 1006.6
20260506221025 46 297 7.0 13.0 0.00 0.45 0.45 95 1006.5
20260506220513 46 297 7.0 13.0 0.01 0.45 0.45 95 1006.4
20260506220031 46 320 7.0 13.0 0.01 0.45 0.45 95 1006.4
20260506215512 46 295 5.0 13.0 0.01 0.48 0.45 95 1006.2
20260506215017 47 302 7.0 13.0 0.01 0.48 0.45 95 1006.1
20260506214510 47 301 6.0 12.0 0.01 0.48 0.45 96 1006.0
20260506214019 47 283 6.0 11.0 0.02 0.48 0.45 96 1005.9
20260506213509 47 298 2.0 10.0 0.02 0.48 0.45 96 1005.8
20260506213018 47 303 4.0 10.0 0.02 0.48 0.45 96 1005.7
20260506212514 48 300 2.0 6.0 0.02 0.48 0.45 96 1005.5
20260506212019 48 277 0.0 3.0 0.02 0.48 0.45 96 1005.1
20260506211517 48 312 1.0 6.0 0.02 0.48 0.45 95 1005.4
20260506211017 48 330 1.0 6.0 0.03 0.48 0.45 95 1005.4
20260506210509 48 300 1.0 5.0 0.02 0.47 0.44 95 1005.4
20260506210015 48 314 1.0 5.0 0.02 0.47 0.44 95 1005.1
20260506205526 48 271 0.0 5.0 0.02 0.47 0.44 95 1005.1
20260506205014 48 221 1.0 5.0 0.03 0.47 0.44 95 1005.0
20260506204526 48 127 1.0 6.0 0.03 0.47 0.44 95 1005.0
20260506204013 48 318 1.0 6.0 0.02 0.46 0.43 95 1004.9
20260506203524 48 315 0.0 4.0 0.02 0.46 0.43 95 1004.8
20260506203014 48 300 0.0 5.0 0.02 0.46 0.43 95 1004.7
20260506202523 48 309 1.0 5.0 0.02 0.46 0.43 95 1004.7
20260506202010 48 317 1.0 5.0 0.02 0.46 0.43 94 1004.5
20260506201518 48 288 1.0 4.0 0.02 0.46 0.43 94 1004.4
20260506201009 49 302 0.0 2.0 0.01 0.45 0.42 94 1004.4
20260506200520 49 329 0.0 4.0 0.01 0.45 0.42 93 1004.3
20260506200008 49 89 1.0 3.0 0.01 0.45 0.42 93 1004.3
20260506195519 49 77 0.0 3.0 0.01 0.45 0.42 92 1004.2
20260506195007 50 99 0.0 3.0 0.00 0.44 0.41 92 1004.1
20260506194526 50 353 0.0 3.0 0.00 0.44 0.41 91 1004.2
20260506194023 51 314 0.0 3.0 0.00 0.44 0.41 90 1004.3
20260506193508 52 79 1.0 5.0 0.00 0.44 0.41 89 1004.2
20260506193016 54 90 1.0 6.0 0.00 0.44 0.41 89 1004.1
20260506192527 55 80 2.0 5.0 0.00 0.44 0.41 86 1003.9
20260506192011 58 117 0.0 12.0 0.00 0.44 0.41 86 1003.8
20260506191010 59 294 2.0 10.0 0.00 0.44 0.41 89 1003.7
20260506190523 59 294 5.0 10.0 0.00 0.44 0.41 89 1003.9
20260506190008 59 277 4.0 10.0 0.00 0.44 0.41 90 1003.9
20260506185520 59 271 2.0 11.0 0.00 0.44 0.41 91 1003.9
20260506185006 59 302 6.0 11.0 0.01 0.44 0.41 91 1003.8
20260506184519 59 239 3.0 10.0 0.01 0.44 0.41 92 1003.7
20260506184020 59 237 5.0 10.0 0.01 0.44 0.41 92 1003.7
20260506183513 59 269 3.0 9.0 0.02 0.44 0.41 93 1003.8
20260506183020 58 274 2.0 9.0 0.02 0.44 0.41 93 1003.7
20260506182510 58 307 1.0 6.0 0.02 0.44 0.41 93 1003.8
20260506182019 58 279 1.0 5.0 0.02 0.44 0.41 93 1003.9
20260506181526 58 198 0.0 5.0 0.02 0.44 0.41 93 1003.9
20260506181011 58 285 2.0 5.0 0.03 0.44 0.41 93 1004.0
20260506180520 58 255 1.0 7.0 0.03 0.44 0.41 93 1004.0
20260506180005 58 283 2.0 7.0 0.04 0.44 0.41 93 1004.1
20260506175515 58 287 3.0 7.0 0.04 0.44 0.41 93 1004.2
20260506175103 58 235 0.0 4.0 0.04 0.43 0.40 93 1004.1
20260506174510 58 289 0.0 3.0 0.05 0.43 0.40 94 1004.2
20260506174016 58 274 0.0 3.0 0.05 0.43 0.40 93 1004.1
20260506173512 58 271 0.0 3.0 0.04 0.42 0.39 94 1004.1
20260506173012 58 214 0.0 1.0 0.05 0.42 0.39 94 1004.1
20260506172525 58 269 0.0 1.0 0.06 0.42 0.39 94 1004.2
20260506172009 58 270 0.0 2.0 0.07 0.42 0.39 94 1004.2
20260506171524 58 264 0.0 2.0 0.08 0.42 0.39 93 1004.2
20260506171011 58 149 0.0 2.0 0.07 0.41 0.38 94 1004.2
20260506170516 58 148 0.0 1.0 0.07 0.41 0.38 94 1004.2
20260506170017 58 148 0.0 0.0 0.07 0.40 0.37 94 1004.2
20260506165526 58 148 0.0 0.0 0.07 0.40 0.37 94 1004.2
20260506165014 58 148 0.0 0.0 0.06 0.39 0.36 94 1004.3
20260506164527 58 146 0.0 0.0 0.06 0.38 0.35 94 1004.3
20260506164009 57 146 0.0 1.0 0.06 0.38 0.35 94 1004.4
20260506163008 57 146 0.0 0.0 0.05 0.37 0.34 94 1004.4
20260506162519 57 146 0.0 3.0 0.05 0.36 0.33 94 1004.4
20260506162019 57 146 0.0 3.0 0.04 0.35 0.32 94 1004.5
20260506161510 57 111 0.0 5.0 0.03 0.34 0.31 94 1004.5
20260506161018 57 295 1.0 5.0 0.04 0.34 0.31 94 1004.4
20260506160514 57 262 1.0 4.0 0.04 0.34 0.31 94 1004.4
20260506160028 57 338 2.0 6.0 0.04 0.33 0.30 94 1004.4
20260506155526 57 314 1.0 9.0 0.05 0.33 0.30 94 1004.3
20260506155014 57 181 0.0 9.0 0.06 0.33 0.30 94 1004.2
20260506154525 57 86 1.0 6.0 0.05 0.32 0.28 94 1004.2
20260506154010 57 172 1.0 8.0 0.06 0.32 0.28 94 1004.3
20260506153519 56 271 0.0 8.0 0.06 0.32 0.28 94 1004.3
20260506153005 56 221 2.0 7.0 0.06 0.31 0.28 94 1004.3
20260506152517 56 46 2.0 8.0 0.07 0.31 0.28 94 1004.3
20260506152021 56 158 3.0 8.0 0.07 0.31 0.28 94 1004.3
20260506151517 56 264 1.0 7.0 0.08 0.31 0.28 94 1004.5
20260506151014 56 40 1.0 9.0 0.08 0.30 0.27 94 1004.6
20260506150523 56 104 1.0 9.0 0.09 0.30 0.27 94 1004.7
20260506150010 56 23 0.0 4.0 0.09 0.28 0.26 94 1004.8
20260506145520 56 170 1.0 5.0 0.09 0.28 0.25 94 1004.9
20260506145006 56 44 1.0 15.0 0.09 0.27 0.24 94 1004.8
20260506144520 56 40 1.0 15.0 0.10 0.27 0.24 94 1004.9
20260506144018 56 72 1.0 4.0 0.10 0.26 0.23 94 1004.9
20260506143507 55 72 1.0 5.0 0.10 0.26 0.23 94 1005.0
20260506143019 55 338 0.0 5.0 0.09 0.25 0.22 94 1005.2
20260506142527 55 224 0.0 5.0 0.09 0.24 0.21 93 1005.5
20260506142014 55 300 0.0 3.0 0.09 0.24 0.21 93 1005.6
20260506141524 55 329 0.0 3.0 0.08 0.23 0.20 93 1005.7
20260506141019 55 323 0.0 3.0 0.07 0.22 0.19 94 1005.6
20260506140510 55 301 0.0 2.0 0.07 0.21 0.18 93 1005.7
20260506140019 55 258 0.0 2.0 0.06 0.20 0.17 93 1005.7
20260506135510 55 296 0.0 2.0 0.05 0.19 0.16 93 1005.8
20260506135018 55 278 0.0 1.0 0.04 0.18 0.15 93 1005.9
20260506134528 55 292 0.0 1.0 0.03 0.17 0.14 92 1005.9
20260506134012 55 292 0.0 0.0 0.02 0.16 0.13 92 1005.9
20260506133523 55 293 0.0 1.0 0.02 0.16 0.13 92 1005.8
20260506133007 55 293 0.0 3.0 0.02 0.16 0.13 92 1005.8
20260506132518 55 295 0.0 2.0 0.01 0.15 0.12 92 1005.6
20260506132021 55 303 0.0 3.0 0.02 0.15 0.12 92 1005.5
20260506131529 55 255 0.0 3.0 0.02 0.15 0.12 92 1005.6
20260506131014 54 272 1.0 3.0 0.03 0.15 0.12 92 1005.6
20260506130525 54 53 0.0 4.0 0.02 0.14 0.11 91 1005.4
20260506130008 55 290 2.0 4.0 0.03 0.14 0.11 91 1005.4
20260506125517 55 345 0.0 4.0 0.04 0.14 0.11 91 1005.3
20260506125006 55 314 1.0 5.0 0.05 0.14 0.11 91 1005.3
20260506124517 55 295 0.0 6.0 0.05 0.14 0.11 92 1005.3
20260506124020 54 338 1.0 6.0 0.06 0.14 0.11 92 1005.5
20260506123511 54 288 1.0 5.0 0.06 0.14 0.11 92 1005.7
20260506123017 54 301 1.0 4.0 0.07 0.14 0.11 92 1005.6
20260506122525 54 294 0.0 5.0 0.06 0.13 0.10 92 1005.7
20260506122011 54 269 1.0 5.0 0.07 0.13 0.10 92 1005.6
20260506121520 54 218 1.0 9.0 0.07 0.13 0.10 93 1005.7
20260506121011 54 342 1.0 9.0 0.06 0.12 0.09 93 1005.8
20260506120532 54 313 2.0 8.0 0.07 0.12 0.09 94 1006.1
20260506120034 53 262 2.0 8.0 0.06 0.11 0.08 95 1006.1
20260506115533 53 312 0.0 3.0 0.05 0.10 0.07 95 1006.1
20260506115033 53 111 0.0 3.0 0.05 0.09 0.06 95 1006.2
20260506114530 52 259 0.0 2.0 0.05 0.09 0.06 95 1006.3
20260506114032 52 168 0.0 2.0 0.04 0.08 0.05 95 1006.3
20260506113530 51 95 1.0 3.0 0.04 0.08 0.05 94 1006.2
20260506113029 51 74 0.0 4.0 0.03 0.07 0.04 93 1006.3
20260506112530 52 304 0.0 3.0 0.03 0.07 0.04 95 1006.3
20260506112029 52 86 0.0 2.0 0.02 0.06 0.03 95 1006.2
20260506111528 51 104 0.0 1.0 0.03 0.06 0.03 94 1006.2
20260506111030 51 104 0.0 2.0 0.03 0.06 0.03 93 1006.1
20260506110532 51 104 0.0 1.0 0.02 0.05 0.02 94 1006.0
20260506110027 51 95 0.0 2.0 0.02 0.05 0.02 94 1005.9
20260506105527 52 94 0.0 2.0 0.02 0.05 0.02 95 1005.8
20260506105030 51 91 0.0 3.0 0.01 0.04 0.01 95 1005.8
20260506104526 51 88 1.0 3.0 0.01 0.04 0.01 94 1005.9
20260506104025 50 84 0.0 1.0 0.01 0.04 0.01 94 1005.8